COSMO-SKYMED 1

Last updated on Thu Oct 30 2025 00:02:15 GMT+0000 (Coordinated Universal Time)

1 31598U 07023A 25302.49541397 .00003424 00000+0 31614-3 0 9992 2 31598 97.8870 127.6166 0001171 79.9718 280.1634 14.95291812995286
UTC large
Height (km)
Speed (km/s)
/
Latitude / Longitude
Inclination (degrees)
Orbital Period (minutes)
Azimuth
Elevation
Range (km)
Doppler Factor

Next 0 passes for location: London (51.5072 / 0.1276)

Sorry there are no passes over London.